Location: *
(46.3500°N, 10.9000°E)
Time: 20:05:02
(UTC+00:00)

Courier 1B - All Passes

Search period start: 17 April 2021 00:00
Search period end: 27 April 2021 00:00
Orbit: 962 x 1209 km, 28.3° (Epoch: 17 April)

Date Brightness Start Highest point End Pass type
(mag) Time Alt. Az. Time Alt. Az. Time Alt. Az.
17 Apr - 14:27:06 10° SSW 14:30:35 15° S 14:34:05 10° SE daylight
17 Apr - 16:20:21 10° SW 16:23:19 13° S 16:26:18 10° SSE daylight
18 Apr - 13:33:59 10° SSW 13:37:09 14° S 13:40:21 10° SE daylight
18 Apr - 15:26:36 10° SW 15:29:53 14° S 15:33:12 10° SSE daylight
19 Apr - 12:41:03 10° SSW 12:43:44 13° SSE 12:46:25 10° SE daylight
19 Apr - 14:33:00 10° SW 14:36:27 15° S 14:39:56 10° SSE daylight
20 Apr - 11:48:32 10° S 11:50:20 11° SSE 11:52:07 10° SSE daylight
20 Apr - 13:39:31 10° SSW 13:43:02 15° S 13:46:32 10° SE daylight
20 Apr - 15:33:39 10° SSW 15:35:44 12° SSW 15:37:49 10° S daylight
21 Apr - 12:46:09 10° SSW 12:49:37 15° S 12:53:02 10° SE daylight
21 Apr - 14:39:29 10° SW 14:42:20 13° S 14:45:10 10° SSE daylight
22 Apr - 11:52:54 10° SSW 11:56:10 14° S 11:59:24 10° SE daylight
22 Apr - 13:45:37 10° SW 13:48:54 14° S 13:52:11 10° SSE daylight
23 Apr - 10:59:51 10° SSW 11:02:45 13° SSE 11:05:35 10° SE daylight
23 Apr - 12:51:54 10° SW 12:55:29 15° S 12:59:01 10° SSE daylight
24 Apr - 10:07:08 10° S 10:09:18 12° SSE 10:11:26 10° SSE daylight
24 Apr - 11:58:19 10° SW 12:02:03 16° S 12:05:42 10° SE daylight
24 Apr - 13:52:28 10° SW 13:54:45 12° SSW 13:57:01 10° S daylight
25 Apr - 11:04:50 10° SSW 11:08:35 15° S 11:12:16 10° SE daylight
25 Apr - 12:58:13 10° SW 13:01:20 14° S 13:04:24 10° SSE daylight
26 Apr - 10:11:28 10° SSW 10:15:08 15° S 10:18:41 10° SE daylight
26 Apr - 12:04:16 10° SW 12:07:54 15° S 12:11:28 10° SSE daylight
